Location: Asheville, NC
(35.6000°N, 82.5500°W)
Time: 08:52:05
(UTC-05:00)

Tiangong 1 - Pass Details

Date: 11 February 2018
Orbit: 248 x 270 km, 42.8° (Epoch: 20 February)

Event Time Altitude Azimuth Distance (km) Brightness Sun altitude
Exits shadow 06:11:47 18° 354° (N) 735 2.3 -14.6°
Drops below altitude 10° 06:13:20 10° 36° (NE) 1,039 3.6 -14.3°
Sets 06:15:37 0° 58° (ENE) 1,865 5.4 -13.8°
